LAN543B KMIA-SAEZ

Flight info

Callsign LAN543B
Flight time N/A
Altitude 39000
Route GWAVA2 URSUS UP406 BILSI UL795 LENAX UL417 NEFTU UP525 POTBA/N0485F410 UP525 RCO UL417 TOPOG UL404 ISOPO UT672 MULTA UW24 SNT SNT7X
Aircraft B788/H-SDE1E2E3FGHIJ2J3J4J5M1RWXY/LB1D1

Departure

Time N/A
Airport Miami International Airport (KMIA)

Arrival

Time 2026-05-03 21:07
Airport Ezeiza International Airport - Ministro Pistarini (SAEZ)
Time Latitude Longitude Altitude Speed Heading
2026-05-03 20:15 -30.47261 -61.52504 41071 ft 482 kts 181°
2026-05-03 20:15 -30.53910 -61.51477 41068 ft 481 kts 181°
2026-05-03 20:16 -30.60578 -61.50431 41070 ft 483 kts 181°
2026-05-03 20:16 -30.67218 -61.49392 41071 ft 484 kts 181°
2026-05-03 20:17 -30.72801 -61.48518 41074 ft 485 kts 181°
2026-05-03 20:17 -30.80580 -61.47310 41075 ft 483 kts 181°
2026-05-03 20:18 -30.86121 -61.46446 41097 ft 482 kts 181°
2026-05-03 20:18 -30.92794 -61.45406 41074 ft 481 kts 181°
2026-05-03 20:19 -30.99407 -61.44372 41073 ft 481 kts 181°
2026-05-03 20:19 -31.06069 -61.43331 41073 ft 482 kts 181°
2026-05-03 20:20 -31.12705 -61.42290 41078 ft 484 kts 181°
2026-05-03 20:20 -31.19392 -61.41240 41078 ft 483 kts 181°
2026-05-03 20:21 -31.26041 -61.40196 41079 ft 483 kts 181°
2026-05-03 20:21 -31.32714 -61.38797 41079 ft 494 kts 172°
2026-05-03 20:22 -31.39274 -61.36331 41077 ft 498 kts 171°
2026-05-03 20:22 -31.45872 -61.33828 41075 ft 497 kts 171°
2026-05-03 20:23 -31.52463 -61.31333 41073 ft 496 kts 171°
2026-05-03 20:23 -31.59019 -61.28845 41074 ft 498 kts 171°
2026-05-03 20:24 -31.65634 -61.26328 41075 ft 498 kts 171°
2026-05-03 20:24 -31.72194 -61.23832 41076 ft 498 kts 171°
2026-05-03 20:25 -31.78816 -61.21307 41076 ft 499 kts 171°
2026-05-03 20:25 -31.85416 -61.18786 41074 ft 498 kts 171°
2026-05-03 20:26 -31.91986 -61.16274 41067 ft 498 kts 171°
2026-05-03 20:26 -31.98575 -61.13751 41063 ft 497 kts 171°
2026-05-03 20:27 -32.05173 -61.11220 41071 ft 497 kts 171°
2026-05-03 20:27 -32.11724 -61.08704 41073 ft 498 kts 171°
2026-05-03 20:28 -32.18348 -61.06155 41072 ft 500 kts 171°
2026-05-03 20:28 -32.24945 -61.03613 41074 ft 499 kts 171°
2026-05-03 20:29 -32.31566 -61.01057 41069 ft 497 kts 171°
2026-05-03 20:29 -32.38114 -60.98527 41068 ft 497 kts 171°
2026-05-03 20:30 -32.44700 -60.95977 41070 ft 497 kts 170°
2026-05-03 20:30 -32.51266 -60.93431 41070 ft 496 kts 170°
2026-05-03 20:31 -32.57805 -60.90894 41069 ft 497 kts 170°
2026-05-03 20:31 -32.64375 -60.88338 41066 ft 499 kts 170°
2026-05-03 20:32 -32.70978 -60.85765 41061 ft 497 kts 170°
2026-05-03 20:32 -32.77522 -60.83213 41056 ft 496 kts 170°
2026-05-03 20:33 -32.84099 -60.80643 41053 ft 496 kts 170°
2026-05-03 20:33 -32.90611 -60.77913 41069 ft 504 kts 163°
2026-05-03 20:34 -32.96842 -60.73773 41046 ft 512 kts 158°
2026-05-03 20:34 -33.02978 -60.69536 41064 ft 511 kts 158°
2026-05-03 20:35 -33.09128 -60.65288 40960 ft 513 kts 158°
2026-05-03 20:35 -33.12214 -60.63154 40743 ft 512 kts 158°
2026-05-03 20:35 -33.15258 -60.61041 40470 ft 509 kts 158°
2026-05-03 20:35 -33.18316 -60.58920 40151 ft 506 kts 158°
2026-05-03 20:36 -33.21334 -60.56829 39840 ft 502 kts 158°
2026-05-03 20:36 -33.24355 -60.54734 39413 ft 502 kts 158°
2026-05-03 20:36 -33.27370 -60.52639 38993 ft 499 kts 158°
2026-05-03 20:36 -33.30366 -60.50552 38461 ft 496 kts 158°
2026-05-03 20:37 -33.33341 -60.48482 37885 ft 494 kts 158°
2026-05-03 20:37 -33.36285 -60.46436 37331 ft 496 kts 157°
2026-05-03 20:37 -33.39275 -60.44353 36790 ft 497 kts 157°
2026-05-03 20:37 -33.42276 -60.42257 36260 ft 497 kts 157°
2026-05-03 20:38 -33.45278 -60.40161 35748 ft 499 kts 157°
2026-05-03 20:38 -33.48251 -60.38085 35263 ft 501 kts 157°
2026-05-03 20:38 -33.51288 -60.35963 34767 ft 503 kts 157°
2026-05-03 20:38 -33.54314 -60.33843 34289 ft 505 kts 157°
2026-05-03 20:39 -33.57323 -60.31734 33764 ft 503 kts 156°
2026-05-03 20:39 -33.60334 -60.29622 33220 ft 500 kts 156°
2026-05-03 20:39 -33.63350 -60.27506 32668 ft 497 kts 156°
2026-05-03 20:39 -33.66339 -60.25408 32166 ft 495 kts 156°
2026-05-03 20:40 -33.69272 -60.23348 31647 ft 493 kts 156°
2026-05-03 20:40 -33.72235 -60.21264 31132 ft 490 kts 156°
2026-05-03 20:40 -33.75184 -60.19187 30625 ft 487 kts 156°
2026-05-03 20:40 -33.78061 -60.17161 30133 ft 484 kts 156°
2026-05-03 20:41 -33.80954 -60.15080 29560 ft 482 kts 153°
2026-05-03 20:41 -33.83604 -60.12552 29039 ft 487 kts 142°
2026-05-03 20:41 -33.85874 -60.09532 28580 ft 494 kts 133°
2026-05-03 20:41 -33.87837 -60.06116 28072 ft 493 kts 129°
2026-05-03 20:42 -33.89759 -60.02703 27597 ft 491 kts 129°
2026-05-03 20:42 -33.91641 -59.99324 27125 ft 488 kts 129°
2026-05-03 20:42 -33.93528 -59.95929 26639 ft 485 kts 129°
2026-05-03 20:42 -33.95405 -59.92569 26191 ft 482 kts 129°
2026-05-03 20:43 -33.97277 -59.89216 25767 ft 479 kts 129°
2026-05-03 20:43 -33.99103 -59.85935 25343 ft 475 kts 128°
2026-05-03 20:43 -34.00935 -59.82637 24931 ft 472 kts 128°
2026-05-03 20:43 -34.02773 -59.79329 24508 ft 471 kts 128°
2026-05-03 20:44 -34.04596 -59.76049 24106 ft 469 kts 128°
2026-05-03 20:44 -34.06408 -59.72782 23699 ft 467 kts 128°
2026-05-03 20:44 -34.08187 -59.69570 23235 ft 465 kts 128°
2026-05-03 20:44 -34.09979 -59.66330 22767 ft 461 kts 128°
2026-05-03 20:45 -34.11807 -59.63168 22291 ft 454 kts 134°
2026-05-03 20:45 -34.14022 -59.60511 21777 ft 443 kts 144°
2026-05-03 20:45 -34.16414 -59.58211 20994 ft 437 kts 148°
2026-05-03 20:45 -34.18873 -59.56057 20253 ft 433 kts 149°
2026-05-03 20:46 -34.21292 -59.54012 19668 ft 426 kts 150°
2026-05-03 20:46 -34.23724 -59.51982 19200 ft 421 kts 150°
2026-05-03 20:46 -34.26109 -59.50003 18747 ft 420 kts 150°
2026-05-03 20:46 -34.28547 -59.47988 18322 ft 419 kts 150°
2026-05-03 20:47 -34.30958 -59.46001 17860 ft 417 kts 150°
2026-05-03 20:47 -34.33324 -59.44058 17426 ft 415 kts 150°
2026-05-03 20:47 -34.35716 -59.42103 17015 ft 414 kts 150°
2026-05-03 20:47 -34.38105 -59.40155 16587 ft 412 kts 150°
2026-05-03 20:48 -34.40470 -59.38233 16166 ft 410 kts 150°
2026-05-03 20:48 -34.42846 -59.36308 15736 ft 408 kts 150°
2026-05-03 20:48 -34.45202 -59.34405 15340 ft 405 kts 150°
2026-05-03 20:48 -34.47555 -59.32515 14938 ft 403 kts 150°
2026-05-03 20:49 -34.49862 -59.30668 14538 ft 400 kts 150°
2026-05-03 20:49 -34.52194 -59.28809 14147 ft 397 kts 150°
2026-05-03 20:49 -34.54485 -59.26984 13741 ft 396 kts 150°
2026-05-03 20:49 -34.56791 -59.25145 13309 ft 394 kts 150°
2026-05-03 20:50 -34.59087 -59.23318 12883 ft 392 kts 150°
2026-05-03 20:50 -34.61338 -59.21532 12455 ft 391 kts 150°
2026-05-03 20:50 -34.63608 -59.19737 12028 ft 383 kts 150°
2026-05-03 20:50 -34.65830 -59.17983 11604 ft 377 kts 150°
2026-05-03 20:51 -34.68003 -59.16272 11193 ft 374 kts 150°
2026-05-03 20:51 -34.70200 -59.14547 10787 ft 373 kts 150°
2026-05-03 20:51 -34.72380 -59.12843 10382 ft 371 kts 150°
2026-05-03 20:51 -34.74524 -59.11173 9985 ft 370 kts 150°
2026-05-03 20:52 -34.76703 -59.09483 9550 ft 367 kts 150°
2026-05-03 20:52 -34.78819 -59.07847 9093 ft 354 kts 150°
2026-05-03 20:52 -34.80894 -59.06245 8658 ft 349 kts 150°
2026-05-03 20:52 -34.82923 -59.04685 8230 ft 346 kts 150°
2026-05-03 20:53 -34.84968 -59.03124 7809 ft 344 kts 150°
2026-05-03 20:53 -34.86972 -59.01606 7390 ft 341 kts 150°
2026-05-03 20:53 -34.88985 -59.00088 6982 ft 339 kts 150°
2026-05-03 20:53 -34.90994 -58.98575 6570 ft 338 kts 150°
2026-05-03 20:54 -34.92981 -58.97052 6147 ft 335 kts 150°
2026-05-03 20:54 -34.96896 -58.94103 5300 ft 331 kts 150°
2026-05-03 20:54 -34.98859 -58.92654 4999 ft 326 kts 149°
2026-05-03 20:55 -35.00503 -58.90774 4988 ft 330 kts 122°
2026-05-03 20:55 -35.01414 -58.88204 4991 ft 330 kts 107°
2026-05-03 20:55 -35.02052 -58.85510 5003 ft 330 kts 103°
2026-05-03 20:55 -35.02575 -58.82817 5005 ft 329 kts 101°
2026-05-03 20:56 -35.03061 -58.80081 5008 ft 331 kts 101°
2026-05-03 20:56 -35.03543 -58.77325 5008 ft 330 kts 101°
2026-05-03 20:56 -35.04015 -58.74573 5011 ft 331 kts 100°
2026-05-03 20:56 -35.04479 -58.71849 5014 ft 330 kts 101°
2026-05-03 20:57 -35.04946 -58.69081 5010 ft 331 kts 100°
2026-05-03 20:57 -35.05406 -58.66333 5006 ft 320 kts 100°
2026-05-03 20:57 -35.05832 -58.63828 4994 ft 290 kts 100°
2026-05-03 20:57 -35.06224 -58.61550 5001 ft 255 kts 100°
2026-05-03 20:58 -35.06567 -58.59566 4988 ft 229 kts 100°
2026-05-03 20:58 -35.06883 -58.57761 4999 ft 208 kts 100°
2026-05-03 20:58 -35.07185 -58.56057 4997 ft 202 kts 100°
2026-05-03 20:58 -35.07480 -58.54415 4998 ft 199 kts 100°
2026-05-03 20:59 -35.07778 -58.52759 4997 ft 200 kts 100°
2026-05-03 20:59 -35.08076 -58.51097 4998 ft 200 kts 100°
2026-05-03 20:59 -35.08352 -58.49422 4997 ft 200 kts 95°
2026-05-03 20:59 -35.08145 -58.47820 4895 ft 180 kts 63°
2026-05-03 21:00 -35.07735 -58.46460 4549 ft 162 kts 62°
2026-05-03 21:00 -35.07607 -58.46047 4408 ft 158 kts 62°
2026-05-03 21:00 -35.06758 -58.44159 3803 ft 147 kts 38°
2026-05-03 21:00 -35.06242 -58.43688 3720 ft 134 kts 18°
2026-05-03 21:01 -35.05079 -58.43605 3783 ft 123 kts 335°
2026-05-03 21:01 -35.04519 -58.43883 3879 ft 138 kts 330°
2026-05-03 21:01 -35.03349 -58.44520 3925 ft 140 kts 331°
2026-05-03 21:01 -35.02773 -58.44858 3922 ft 139 kts 330°
2026-05-03 21:02 -35.01898 -58.45373 3879 ft 138 kts 331°
2026-05-03 21:02 -35.01051 -58.45865 3917 ft 139 kts 331°
2026-05-03 21:02 -35.00169 -58.46348 3892 ft 139 kts 335°
2026-05-03 21:02 -34.99250 -58.46726 3850 ft 139 kts 339°
2026-05-03 21:03 -34.98319 -58.47078 3769 ft 139 kts 339°
2026-05-03 21:03 -34.97416 -58.47415 3658 ft 139 kts 339°
2026-05-03 21:03 -34.96497 -58.47801 3324 ft 139 kts 337°
2026-05-03 21:03 -34.95634 -58.48167 3154 ft 131 kts 339°
2026-05-03 21:04 -34.94769 -58.48509 2952 ft 131 kts 342°
2026-05-03 21:04 -34.93908 -58.48820 2740 ft 131 kts 342°
2026-05-03 21:04 -34.93042 -58.49150 2519 ft 126 kts 343°
2026-05-03 21:04 -34.92194 -58.49465 2424 ft 129 kts 343°
2026-05-03 21:05 -34.91323 -58.49782 2271 ft 131 kts 344°
2026-05-03 21:05 -34.90443 -58.50096 2000 ft 131 kts 344°
2026-05-03 21:05 -34.89574 -58.50389 1718 ft 130 kts 346°
2026-05-03 21:05 -34.88678 -58.50702 1449 ft 132 kts 345°
2026-05-03 21:06 -34.87798 -58.51004 1219 ft 130 kts 345°
2026-05-03 21:06 -34.86932 -58.51303 1003 ft 128 kts 345°
2026-05-03 21:06 -34.86065 -58.51600 752 ft 133 kts 346°
2026-05-03 21:06 -34.85177 -58.51898 566 ft 130 kts 345°
2026-05-03 21:07 -34.84331 -58.52191 299 ft 128 kts 347°
2026-05-03 21:07 -34.83445 -58.52491 145 ft 130 kts 346°
2026-05-03 21:07 -34.82651 -58.52755 65 ft 87 kts 344°
2026-05-03 21:07 -34.82179 -58.52922 68 ft 49 kts 344°
2026-05-03 21:08 -34.81879 -58.53026 65 ft 42 kts 345°
2026-05-03 21:08 -34.81655 -58.53103 66 ft 27 kts 343°
2026-05-03 21:08 -34.81528 -58.53214 68 ft 20 kts 301°
2026-05-03 21:08 -34.81475 -58.53327 65 ft 11 kts 299°
2026-05-03 21:09 -34.81436 -58.53412 67 ft 12 kts 299°
2026-05-03 21:09 -34.81391 -58.53513 66 ft 13 kts 296°
2026-05-03 21:09 -34.81394 -58.53596 63 ft 6 kts 236°
2026-05-03 21:09 -34.81421 -58.53611 65 ft 11 kts 197°
2026-05-03 21:10 -34.81498 -58.53644 70 ft 13 kts 204°
2026-05-03 21:10 -34.81571 -58.53706 65 ft 13 kts 221°
2026-05-03 21:10 -34.81634 -58.53776 68 ft 13 kts 221°
2026-05-03 21:10 -34.81699 -58.53856 64 ft 13 kts 232°
2026-05-03 21:11 -34.81743 -58.53937 66 ft 9 kts 239°
2026-05-03 21:11 -34.81759 -58.53970 64 ft 4 kts 240°
2026-05-03 21:11 -34.81777 -58.54011 65 ft 7 kts 243°
2026-05-03 21:11 -34.81791 -58.54076 68 ft 9 kts 266°
2026-05-03 21:12 -34.81792 -58.54125 68 ft 2 kts 269°
2026-05-03 21:12 -34.81790 -58.54143 69 ft 2 kts 278°
2026-05-03 21:12 -34.81788 -58.54165 70 ft 4 kts 277°
2026-05-03 21:12 -34.81780 -58.54179 69 ft 2 kts 315°
2026-05-03 21:13 -34.81757 -58.54181 73 ft 4 kts 356°
2026-05-03 21:13 -34.81724 -58.54180 69 ft 4 kts
2026-05-03 21:13 -34.81710 -58.54176 69 ft 2 kts 11°
2026-05-03 21:13 -34.81696 -58.54171 68 ft 3 kts 14°
2026-05-03 21:14 -34.81686 -58.54168 70 ft 1 kts 15°
2026-05-03 21:14 -34.81680 -58.54166 71 ft 1 kts 15°
2026-05-03 21:14 -34.81674 -58.54164 72 ft 1 kts 15°
2026-05-03 21:14 -34.81673 -58.54164 72 ft 0 kts 15°
2026-05-03 21:15 -34.81672 -58.54163 72 ft 0 kts 15°
2026-05-03 21:16 -34.81672 -58.54164 73 ft 1 kts 15°